Hourly Data Report for June 29, 2022

SANIRAJAK AIRPORT
NUNAVUT
Current Station Operator: NAVCAN

68°46'33.000" N
81°14'33.000" W
9.10 m
2402354
71293
YUX

Download Data

Hourly Data (June 2022)
Hourly Data Report for June 29, 2022
TIME
LST
Temp Definition
°C
Dew Point Definition
°C
Rel Hum Definition
%
Precip. Amount Definition
mm

Wind Dir Definition
10's deg

Wind Spd Definition
km/h
Visibility Definition
km
Stn Press Definition
kPa
Hmdx Definition


Wind Chill Definition


Weather Definition


00:00 2.2 1.8 97 0.0 15 11 16.1 100.62     LegendNANA
01:00 1.8 1.5 98 0.0   0 16.1 100.62     LegendNANA
02:00 LegendMM LegendMM 100 0.0 23 5 16.1 LegendMM     LegendNANA
03:00 LegendMM LegendMM LegendMM 0.0 23 9 16.1 LegendMM     LegendNANA
04:00 2.5 2.5 100 0.0 23 11 16.1 100.66     LegendNANA
05:00 4.3 1.3 81 0.0 22 15 16.1 100.67     LegendNANA
06:00 6.9 1.3 67 0.0 26 5 16.1 100.71     LegendNANA
07:00 9.3 1.3 57 0.0 21 5 16.1 100.72     LegendNANA
08:00 6.7 1.3 68 0.0 10 5 16.1 100.74     LegendNANA
09:00 8.0 1.4 63 0.0 13 5 16.1 100.75     LegendNANA
10:00 9.9 1.7 56 0.0 15 9 16.1 100.75     LegendNANA
11:00 10.5 1.9 55 0.0 17 11 16.1 100.76     LegendNANA
12:00 9.9 2.5 60 0.0 16 13 16.1 100.79     LegendNANA
13:00 9.0 2.4 63 0.0 17 17 16.1 100.84     LegendNANA
14:00 10.6 2.5 57 0.0 19 15 16.1 100.88     LegendNANA
15:00 10.8 2.6 57 0.0 19 15 16.1 100.89     LegendNANA
16:00 10.9 2.3 55 0.0 18 15 8.1 100.91     Haze
17:00 10.6 2.2 56 0.0 19 15 16.1 100.91     LegendNANA
18:00 9.7 2.3 60 0.0 20 17 16.1 100.93     LegendNANA
19:00 9.1 2.4 63 0.0 21 13 16.1 100.96     LegendNANA
20:00 6.2 2.1 75 0.0 21 17 16.1 100.97     LegendNANA
21:00 6.7 2.6 75 0.0 21 17 16.1 100.97     LegendNANA
22:00 5.4 2.4 81 0.0 23 13 16.1 101.00     LegendNANA
23:00 4.3 2.5 88 0.0 23 17 16.1 100.99     LegendNANA

Notes on Data Quality.

Legend

  • E = Estimated
  • M = Missing
  • NA = Not Available*
  • [empty] = Indicates an unobserved value
Date modified: